FW0743 Weather Reports


time (UTC)temp
F
wind
direction
speed
knots
gust
knots
rain 1hr
in
rain 24hr
in
rain mn
in
humidity
%
barometer
mb
20260508213029 52 242 2.6 7.8 0.00 0.01 0.01 42 1011.2
20260508211529 52 350 2.6 10.4 0.00 0.01 0.01 40 1011.3
20260508210032 52 325 3.5 8.7 0.00 0.01 0.01 43 1011.4
20260508204512 51 242 7.0 10.4 0.00 0.01 0.01 42 1011.5
20260508203020 50 299 3.5 10.4 0.00 0.01 0.01 45 1011.7
20260508201522 49 355 0.9 7.8 0.00 0.01 0.01 52 1011.7
20260508200031 49 257 1.7 8.7 0.00 0.01 0.01 52 1011.9
20260508194527 51 13 6.1 13.0 0.00 0.01 0.01 54 1012.0
20260508193014 50 249 1.7 10.4 0.00 0.01 0.01 53 1011.9
20260508191525 49 309 4.3 13.9 0.00 0.01 0.01 58 1012.0
20260508190033 49 319 4.3 10.4 0.00 0.01 0.01 58 1011.9
20260508184527 48 311 4.3 9.6 0.00 0.01 0.01 55 1012.0
20260508183015 49 252 4.3 12.2 0.00 0.01 0.01 50 1012.0
20260508181541 47 296 3.5 7.8 0.00 0.01 0.01 59 1012.1
20260508180005 47 355 3.5 8.7 0.00 0.01 0.01 57 1012.3
20260508174514 47 329 2.6 8.7 0.00 0.01 0.01 55 1012.4
20260508173012 47 335 2.6 11.3 0.00 0.01 0.01 58 1012.5
20260508171517 46 321 4.3 10.4 0.00 0.01 0.01 58 1012.6
20260508170024 47 74 0.9 8.7 0.00 0.01 0.01 65 1012.4
20260508164505 46 286 2.6 7.0 0.00 0.01 0.01 68 1012.4
20260508163008 47 336 7.0 13.0 0.00 0.01 0.01 55 1012.6
20260508161511 47 289 1.7 7.8 0.00 0.01 0.01 60 1012.6
20260508160033 46 296 1.7 9.6 0.00 0.01 0.01 62 1012.8
20260508154524 46 24 2.6 10.4 0.00 0.01 0.01 63 1012.7
20260508153006 45 300 4.3 12.2 0.00 0.01 0.01 64 1012.6
20260508151511 45 282 3.5 9.6 0.00 0.01 0.01 62 1012.8
20260508150015 44 228 4.3 8.7 0.00 0.01 0.01 65 1012.8
20260508144520 44 300 4.3 8.7 0.00 0.01 0.01 68 1013.0
20260508143026 43 254 3.5 7.8 0.00 0.01 0.01 70 1012.9
20260508141510 42 266 2.6 7.8 0.00 0.01 0.01 67 1012.8
20260508140012 41 294 0.9 4.3 0.00 0.01 0.01 68 1012.9
20260508134517 42 261 5.2 8.7 0.00 0.01 0.01 71 1012.9
20260508133021 42 269 0.9 7.0 0.00 0.01 0.01 78 1012.7
20260508131524 42 295 1.7 5.2 0.00 0.01 0.01 80 1012.7
20260508130012 42 297 2.6 6.1 0.00 0.01 0.01 82 1012.4
20260508124517 41 295 2.6 4.3 0.00 0.01 0.01 86 1012.2
20260508123020 40 343 0.0 3.5 0.00 0.01 0.01 92 1012.0
20260508121523 40 319 1.7 6.1 0.00 0.01 0.01 93 1012.0
20260508120035 39 294 0.9 3.5 0.00 0.01 0.01 95 1012.1
20260508114513 38 331 0.0 2.6 0.00 0.01 0.01 96 1012.1
20260508113019 37 177 0.9 1.7 0.00 0.01 0.01 96 1012.2
20260508111522 36 273 0.0 0.9 0.00 0.01 0.01 96 1012.3
20260508110025 35 120 0.0 2.6 0.00 0.01 0.01 96 1012.3
20260508104510 34 188 0.0 1.7 0.00 0.01 0.01 96 1012.2
20260508103027 33 188 0.0 0.9 0.00 0.01 0.01 95 1012.1
20260508101533 32 188 0.0 1.7 0.00 0.01 0.01 95 1012.1
20260508100027 32 188 0.0 1.7 0.00 0.01 0.01 94 1012.0
20260508094527 33 199 0.0 1.7 0.00 0.01 0.01 94 1011.9
20260508093011 33 198 0.0 1.7 0.00 0.01 0.01 94 1011.8
20260508091516 34 250 0.0 0.0 0.00 0.01 0.01 93 1011.8
20260508090024 35 250 0.0 1.7 0.00 0.01 0.01 92 1011.8
20260508084525 35 250 0.0 1.7 0.00 0.01 0.01 92 1011.8
20260508083012 36 250 0.0 2.6 0.00 0.01 0.01 92 1011.8
20260508081514 37 271 0.0 1.7 0.00 0.01 0.01 91 1011.8
20260508080020 37 279 0.0 2.6 0.00 0.01 0.01 91 1011.8
20260508074522 37 271 0.9 3.5 0.00 0.01 0.01 91 1011.7
20260508073028 37 246 0.9 2.6 0.00 0.01 0.01 91 1011.7
20260508071513 37 246 0.0 3.5 0.00 0.01 0.01 91 1011.6
20260508070015 38 296 0.9 6.1 0.00 0.01 0.01 91 1011.7
20260508064532 38 248 0.9 2.6 0.01 0.01 0.01 89 1011.7
20260508063025 38 252 0.9 2.6 0.01 0.01 0.01 88 1011.6
20260508061514 38 302 1.7 5.2 0.01 0.01 0.01 87 1011.7
20260508060016 39 307 0.9 8.7 0.01 0.01 0.01 86 1011.7
20260508054517 39 227 0.9 7.0 0.00 0.00 0.00 84 1011.5
20260508053024 40 286 1.7 7.8 0.00 0.00 0.00 80 1011.7
20260508051525 40 319 2.6 6.1 0.00 0.00 0.00 79 1011.4
20260508050018 40 299 2.6 7.8 0.00 0.00 0.00 76 1011.5
20260508044516 40 296 2.6 10.4 0.00 0.00 0.00 73 1011.4
20260508043021 40 303 4.3 7.8 0.00 0.00 0.00 72 1011.4
20260508041524 39 268 0.9 4.3 0.00 0.00 0.00 75 1011.1
20260508040036 39 273 0.9 3.5 0.00 0.00 0.00 75 1011.1
20260508034511 37 270 0.9 4.3 0.00 0.00 0.00 79 1011.1
20260508033021 36 297 0.0 1.7 0.00 0.00 0.00 80 1011.1
20260508031529 37 297 0.0 0.9 0.00 0.00 0.00 76 1011.0
20260508030025 37 297 0.0 0.0 0.00 0.00 0.00 74 1010.9
20260508024540 38 297 0.0 0.0 0.00 0.00 0.00 70 1011.0
20260508023024 39 297 0.0 0.9 0.00 0.00 0.00 66 1011.0
20260508021519 40 297 0.0 0.9 0.00 0.00 0.00 67 1011.0
20260508020022 40 297 0.0 1.7 0.00 0.00 0.00 63 1011.1
20260508014542 41 297 0.0 1.7 0.00 0.00 0.00 63 1011.2
20260508013029 42 297 0.0 1.7 0.00 0.00 0.00 61 1011.2
20260508011520 43 297 0.0 1.7 0.00 0.00 0.00 56 1011.0
20260508010027 44 277 0.0 2.6 0.00 0.00 0.00 58 1011.0
20260508004527 44 319 0.9 5.2 0.00 0.00 0.00 53 1010.7
20260508003031 45 313 1.7 4.3 0.00 0.00 0.00 53 1010.7
20260508001512 45 326 1.7 4.3 0.00 0.00 0.00 50 1010.6
20260508000019 46 340 1.7 7.8 0.00 0.00 0.00 47 1010.4
20260507234504 46 13 2.6 7.0 0.00 0.00 0.00 46 1010.4
20260507233006 47 10 3.5 8.7 0.00 0.00 0.00 44 1010.2
20260507231512 47 342 2.6 9.6 0.00 0.00 0.00 43 1010.2
20260507230017 48 347 3.5 8.7 0.00 0.00 0.00 42 1010.2
20260507224520 48 236 2.6 8.7 0.00 0.00 0.00 43 1010.2
20260507223004 48 295 1.7 7.0 0.00 0.00 0.00 43 1010.3
20260507221510 48 351 2.6 10.4 0.00 0.00 0.00 42 1010.2
20260507220014 49 318 4.3 11.3 0.00 0.00 0.00 40 1010.2
20260507214519 49 350 3.5 7.8 0.00 0.00 0.00 39 1010.4